GLO7643 SBRF-SBCF

Flight info

Callsign GLO7643
Flight time 2h 27m
Altitude 38000
Route UDOSA UZ21 OPTEB
Aircraft B738/M-SDE2E3FGHIRWXY/LB1

Departure

Time 2026-05-08 23:40
Airport Recife/Guararapes - Gilberto Freyre International Airport (SBRF)

Arrival

Time 2026-05-09 02:07
Airport Tancredo Neves International Airport (SBCF)
Time Latitude Longitude Altitude Speed Heading
2026-05-08 23:14 -8.13278 -34.91877 45 ft 0 kts 71°
2026-05-08 23:29 -8.13279 -34.91880 45 ft 2 kts 71°
2026-05-08 23:29 -8.13284 -34.91895 45 ft 2 kts 71°
2026-05-08 23:29 -8.13289 -34.91909 45 ft 0 kts 71°
2026-05-08 23:29 -8.13295 -34.91922 45 ft 2 kts 47°
2026-05-08 23:30 -8.13307 -34.91931 45 ft 2 kts 25°
2026-05-08 23:30 -8.13321 -34.91935 45 ft 2 kts
2026-05-08 23:30 -8.13333 -34.91934 45 ft 0 kts 343°
2026-05-08 23:30 -8.13337 -34.91933 45 ft 1 kts 338°
2026-05-08 23:31 -8.13340 -34.91931 45 ft 0 kts 340°
2026-05-08 23:33 -8.13309 -34.91942 45 ft 7 kts 341°
2026-05-08 23:33 -8.13244 -34.91964 45 ft 10 kts 342°
2026-05-08 23:33 -8.13169 -34.91988 45 ft 11 kts 342°
2026-05-08 23:33 -8.13088 -34.92015 45 ft 12 kts 341°
2026-05-08 23:34 -8.13003 -34.92043 45 ft 12 kts 342°
2026-05-08 23:34 -8.12918 -34.92070 45 ft 13 kts 342°
2026-05-08 23:34 -8.12829 -34.92100 45 ft 13 kts 341°
2026-05-08 23:34 -8.12739 -34.92130 45 ft 13 kts 341°
2026-05-08 23:35 -8.12677 -34.92151 45 ft 13 kts 342°
2026-05-08 23:35 -8.12584 -34.92180 45 ft 14 kts 343°
2026-05-08 23:35 -8.12457 -34.92222 45 ft 14 kts 342°
2026-05-08 23:35 -8.12359 -34.92254 45 ft 14 kts 341°
2026-05-08 23:36 -8.12294 -34.92276 45 ft 14 kts 342°
2026-05-08 23:36 -8.12195 -34.92308 45 ft 14 kts 342°
2026-05-08 23:36 -8.12100 -34.92339 45 ft 14 kts 342°
2026-05-08 23:36 -8.11974 -34.92380 45 ft 14 kts 341°
2026-05-08 23:37 -8.11910 -34.92402 45 ft 14 kts 341°
2026-05-08 23:37 -8.11817 -34.92433 44 ft 14 kts 341°
2026-05-08 23:37 -8.11682 -34.92477 43 ft 15 kts 342°
2026-05-08 23:37 -8.11643 -34.92491 42 ft 4 kts 336°
2026-05-08 23:38 -8.11611 -34.92508 42 ft 6 kts 329°
2026-05-08 23:38 -8.11562 -34.92546 41 ft 11 kts 320°
2026-05-08 23:38 -8.11463 -34.92632 39 ft 14 kts 317°
2026-05-08 23:38 -8.11457 -34.92682 38 ft 11 kts 221°
2026-05-08 23:39 -8.11544 -34.92674 40 ft 9 kts 163°
2026-05-08 23:39 -8.11610 -34.92653 41 ft 24 kts 161°
2026-05-08 23:39 -8.11988 -34.92525 46 ft 91 kts 162°
2026-05-08 23:39 -8.12808 -34.92260 47 ft 153 kts 161°
2026-05-08 23:40 -8.13983 -34.91896 246 ft 187 kts 163°
2026-05-08 23:40 -8.15232 -34.91601 1123 ft 184 kts 163°
2026-05-08 23:40 -8.16406 -34.91327 2073 ft 170 kts 167°
2026-05-08 23:40 -8.17671 -34.91317 2204 ft 194 kts 186°
2026-05-08 23:41 -8.18940 -34.91808 2669 ft 200 kts 208°
2026-05-08 23:41 -8.20000 -34.92821 2857 ft 222 kts 232°
2026-05-08 23:41 -8.20632 -34.94294 3182 ft 239 kts 258°
2026-05-08 23:41 -8.20682 -34.96024 3721 ft 255 kts 274°
2026-05-08 23:42 -8.20575 -34.97827 4401 ft 263 kts 270°
2026-05-08 23:42 -8.20655 -34.99661 5234 ft 263 kts 258°
2026-05-08 23:42 -8.21172 -35.01424 5973 ft 266 kts 243°
2026-05-08 23:42 -8.22274 -35.03630 7079 ft 264 kts 239°
2026-05-08 23:43 -8.23111 -35.05281 7829 ft 268 kts 242°
2026-05-08 23:43 -8.23651 -35.06419 8160 ft 278 kts 245°
2026-05-08 23:43 -8.24324 -35.08299 8715 ft 290 kts 252°
2026-05-08 23:43 -8.24915 -35.10285 9192 ft 305 kts 252°
2026-05-08 23:44 -8.25555 -35.12326 9913 ft 308 kts 251°
2026-05-08 23:44 -8.26237 -35.14393 10645 ft 312 kts 250°
2026-05-08 23:44 -8.27445 -35.17034 11586 ft 315 kts 236°
2026-05-08 23:44 -8.28296 -35.18235 12041 ft 317 kts 231°
2026-05-08 23:45 -8.29693 -35.19932 12678 ft 320 kts 228°
2026-05-08 23:45 -8.31179 -35.21650 13277 ft 326 kts 228°
2026-05-08 23:45 -8.32677 -35.23412 13601 ft 341 kts 229°
2026-05-08 23:45 -8.34227 -35.25286 13934 ft 355 kts 230°
2026-05-08 23:46 -8.35833 -35.27266 14278 ft 368 kts 231°
2026-05-08 23:46 -8.37475 -35.29311 14657 ft 380 kts 231°
2026-05-08 23:46 -8.39684 -35.32074 15552 ft 381 kts 231°
2026-05-08 23:46 -8.40798 -35.33470 15958 ft 383 kts 231°
2026-05-08 23:47 -8.42480 -35.35577 16580 ft 385 kts 231°
2026-05-08 23:47 -8.44155 -35.37674 17314 ft 383 kts 231°
2026-05-08 23:47 -8.45811 -35.39744 17916 ft 385 kts 231°
2026-05-08 23:47 -8.47526 -35.41888 18333 ft 392 kts 232°
2026-05-08 23:48 -8.49241 -35.44030 18783 ft 397 kts 232°
2026-05-08 23:48 -8.50991 -35.46217 19250 ft 402 kts 232°
2026-05-08 23:48 -8.52763 -35.48430 19703 ft 407 kts 232°
2026-05-08 23:48 -8.54553 -35.50664 20159 ft 411 kts 232°
2026-05-08 23:49 -8.56338 -35.52891 20613 ft 415 kts 232°
2026-05-08 23:49 -8.58161 -35.55165 21043 ft 419 kts 233°
2026-05-08 23:49 -8.59997 -35.57456 21465 ft 423 kts 233°
2026-05-08 23:49 -8.61881 -35.59809 21905 ft 427 kts 233°
2026-05-08 23:50 -8.63751 -35.62143 22316 ft 431 kts 233°
2026-05-08 23:50 -8.65623 -35.64482 22774 ft 433 kts 233°
2026-05-08 23:50 -8.68156 -35.67645 23435 ft 434 kts 233°
2026-05-08 23:50 -8.70058 -35.70020 23890 ft 435 kts 233°
2026-05-08 23:51 -8.71318 -35.71593 24220 ft 436 kts 233°
2026-05-08 23:51 -8.73226 -35.73977 24616 ft 438 kts 233°
2026-05-08 23:51 -8.75147 -35.76378 25087 ft 439 kts 233°
2026-05-08 23:51 -8.77071 -35.78784 25487 ft 441 kts 233°
2026-05-08 23:52 -8.78993 -35.81189 25935 ft 441 kts 234°
2026-05-08 23:52 -8.80942 -35.83628 26338 ft 443 kts 234°
2026-05-08 23:52 -8.83514 -35.86849 26928 ft 443 kts 234°
2026-05-08 23:52 -8.85434 -35.89255 27251 ft 446 kts 234°
2026-05-08 23:53 -8.86744 -35.90897 27564 ft 445 kts 234°
2026-05-08 23:53 -8.89328 -35.94135 28019 ft 448 kts 234°
2026-05-08 23:53 -8.90644 -35.95786 28240 ft 449 kts 234°
2026-05-08 23:53 -8.93252 -35.99057 28777 ft 449 kts 234°
2026-05-08 23:54 -8.94577 -36.00718 28977 ft 451 kts 234°
2026-05-08 23:54 -8.96551 -36.03194 29281 ft 454 kts 234°
2026-05-08 23:54 -8.98529 -36.05675 29622 ft 456 kts 234°
2026-05-08 23:55 -9.02564 -36.10664 30203 ft 461 kts 232°
2026-05-08 23:55 -9.04748 -36.13028 30747 ft 459 kts 227°
2026-05-08 23:55 -9.07131 -36.15148 31250 ft 459 kts 222°
2026-05-08 23:55 -9.10558 -36.17750 31762 ft 460 kts 219°
2026-05-08 23:56 -9.12298 -36.18978 32018 ft 460 kts 218°
2026-05-08 23:56 -9.14957 -36.20806 32373 ft 459 kts 218°
2026-05-08 23:56 -9.17610 -36.22609 32703 ft 459 kts 218°
2026-05-08 23:56 -9.20290 -36.24435 33132 ft 457 kts 218°
2026-05-08 23:57 -9.22904 -36.26229 33576 ft 455 kts 218°
2026-05-08 23:57 -9.25517 -36.28037 34032 ft 452 kts 218°
2026-05-08 23:57 -9.28079 -36.29823 34401 ft 450 kts 218°
2026-05-08 23:57 -9.30657 -36.31630 34773 ft 449 kts 218°
2026-05-08 23:58 -9.33238 -36.33447 35166 ft 446 kts 218°
2026-05-08 23:58 -9.35798 -36.35254 35542 ft 444 kts 218°
2026-05-08 23:58 -9.39170 -36.37637 35989 ft 442 kts 218°
2026-05-08 23:58 -9.40830 -36.38812 36206 ft 441 kts 218°
2026-05-08 23:59 -9.43343 -36.40592 36494 ft 440 kts 218°
2026-05-08 23:59 -9.45852 -36.42369 36788 ft 439 kts 218°
2026-05-08 23:59 -9.48354 -36.44143 37017 ft 439 kts 218°
2026-05-08 23:59 -9.50858 -36.45918 37259 ft 439 kts 218°
2026-05-09 00:00 -9.53384 -36.47709 37480 ft 438 kts 218°
2026-05-09 00:00 -9.55881 -36.49480 37685 ft 438 kts 218°
2026-05-09 00:00 -9.59211 -36.51841 37993 ft 437 kts 218°
2026-05-09 00:01 -9.64176 -36.55363 38051 ft 437 kts 218°
2026-05-09 00:01 -9.68294 -36.58284 38048 ft 433 kts 218°
2026-05-09 00:02 -9.73252 -36.61813 38048 ft 434 kts 218°
2026-05-09 00:02 -9.79040 -36.65945 38047 ft 435 kts 218°
2026-05-09 00:03 -9.83950 -36.69449 38050 ft 434 kts 218°
2026-05-09 00:03 -9.88893 -36.72977 38053 ft 434 kts 218°
2026-05-09 00:04 -9.93830 -36.76503 38044 ft 434 kts 218°
2026-05-09 00:04 -9.98777 -36.80040 38038 ft 433 kts 218°
2026-05-09 00:05 -10.03689 -36.83555 38036 ft 433 kts 218°
2026-05-09 00:05 -10.07810 -36.86503 38034 ft 434 kts 218°
2026-05-09 00:06 -10.12752 -36.90041 38039 ft 433 kts 218°
2026-05-09 00:06 -10.17657 -36.93556 38039 ft 433 kts 218°
2026-05-09 00:07 -10.22611 -36.97105 38036 ft 434 kts 218°
2026-05-09 00:07 -10.27517 -37.00621 38034 ft 434 kts 218°
2026-05-09 00:08 -10.32469 -37.04171 38034 ft 434 kts 218°
2026-05-09 00:08 -10.37397 -37.07705 38032 ft 435 kts 218°
2026-05-09 00:09 -10.42361 -37.11265 38034 ft 434 kts 218°
2026-05-09 00:09 -10.48109 -37.15390 38038 ft 434 kts 218°
2026-05-09 00:10 -10.52223 -37.18344 38035 ft 433 kts 218°
2026-05-09 00:10 -10.57140 -37.21875 38035 ft 433 kts 218°
2026-05-09 00:11 -10.62054 -37.25407 38030 ft 433 kts 218°
2026-05-09 00:11 -10.66984 -37.28952 38034 ft 435 kts 218°
2026-05-09 00:12 -10.71904 -37.32490 38031 ft 432 kts 218°
2026-05-09 00:12 -10.77626 -37.36607 38030 ft 433 kts 218°
2026-05-09 00:13 -10.81748 -37.39575 38029 ft 433 kts 218°
2026-05-09 00:13 -10.87453 -37.43682 38031 ft 431 kts 218°
2026-05-09 00:14 -10.91527 -37.46616 38031 ft 430 kts 218°
2026-05-09 00:14 -10.96410 -37.50135 38036 ft 429 kts 218°
2026-05-09 00:15 -11.01295 -37.53656 38038 ft 429 kts 218°
2026-05-09 00:15 -11.06175 -37.57177 38046 ft 431 kts 218°
2026-05-09 00:16 -11.11069 -37.60708 38049 ft 430 kts 218°
2026-05-09 00:16 -11.15947 -37.64230 38048 ft 430 kts 218°
2026-05-09 00:17 -11.20822 -37.67751 38046 ft 428 kts 218°
2026-05-09 00:17 -11.25682 -37.71263 38049 ft 428 kts 218°
2026-05-09 00:18 -11.30557 -37.74784 38050 ft 428 kts 218°
2026-05-09 00:18 -11.35406 -37.78290 38052 ft 428 kts 217°
2026-05-09 00:19 -11.40274 -37.81811 38052 ft 429 kts 218°
2026-05-09 00:19 -11.45946 -37.85916 38048 ft 429 kts 218°
2026-05-09 00:20 -11.49989 -37.88849 38047 ft 429 kts 218°
2026-05-09 00:20 -11.54863 -37.92401 38050 ft 430 kts 218°
2026-05-09 00:21 -11.59718 -37.95939 38049 ft 426 kts 218°
2026-05-09 00:21 -11.64547 -37.99460 38050 ft 428 kts 218°
2026-05-09 00:22 -11.69405 -38.03003 38050 ft 429 kts 218°
2026-05-09 00:22 -11.74248 -38.06533 38048 ft 428 kts 218°
2026-05-09 00:23 -11.79120 -38.10088 38048 ft 429 kts 218°
2026-05-09 00:23 -11.83960 -38.13623 38046 ft 429 kts 218°
2026-05-09 00:24 -11.88849 -38.17194 38047 ft 429 kts 218°
2026-05-09 00:24 -11.93699 -38.20737 38046 ft 430 kts 218°
2026-05-09 00:25 -11.98542 -38.24275 38052 ft 428 kts 218°
2026-05-09 00:25 -12.03422 -38.27842 38062 ft 429 kts 218°
2026-05-09 00:26 -12.08263 -38.31382 38062 ft 428 kts 218°
2026-05-09 00:26 -12.13917 -38.35521 38059 ft 429 kts 218°
2026-05-09 00:27 -12.17969 -38.38489 38059 ft 429 kts 218°
2026-05-09 00:27 -12.22805 -38.42033 38056 ft 428 kts 217°
2026-05-09 00:28 -12.27642 -38.45579 38053 ft 428 kts 217°
2026-05-09 00:28 -12.33269 -38.49706 38048 ft 428 kts 217°
2026-05-09 00:29 -12.38130 -38.53272 38047 ft 429 kts 217°
2026-05-09 00:29 -12.42178 -38.56244 38045 ft 428 kts 217°
2026-05-09 00:30 -12.47812 -38.60381 38048 ft 428 kts 217°
2026-05-09 00:30 -12.52638 -38.63926 38042 ft 427 kts 217°
2026-05-09 00:31 -12.56669 -38.66888 38043 ft 428 kts 217°
2026-05-09 00:31 -12.61501 -38.70441 38042 ft 428 kts 217°
2026-05-09 00:32 -12.66362 -38.74017 38042 ft 427 kts 217°
2026-05-09 00:32 -12.71183 -38.77565 38047 ft 426 kts 217°
2026-05-09 00:33 -12.76800 -38.81704 38043 ft 426 kts 217°
2026-05-09 00:33 -12.81609 -38.85253 38050 ft 427 kts 217°
2026-05-09 00:34 -12.85617 -38.88214 38043 ft 426 kts 217°
2026-05-09 00:34 -12.90443 -38.91783 38040 ft 427 kts 217°
2026-05-09 00:35 -12.95247 -38.95342 38037 ft 428 kts 217°
2026-05-09 00:35 -13.00071 -38.98918 38038 ft 427 kts 217°
2026-05-09 00:36 -13.04883 -39.02486 38037 ft 427 kts 217°
2026-05-09 00:36 -13.09699 -39.06059 38037 ft 426 kts 217°
2026-05-09 00:37 -13.14504 -39.09626 38039 ft 425 kts 217°
2026-05-09 00:37 -13.19303 -39.13190 38045 ft 425 kts 217°
2026-05-09 00:38 -13.24071 -39.16733 38049 ft 425 kts 217°
2026-05-09 00:38 -13.28872 -39.20302 38051 ft 424 kts 217°
2026-05-09 00:39 -13.33661 -39.23863 38046 ft 424 kts 217°
2026-05-09 00:39 -13.38431 -39.27412 38052 ft 423 kts 217°
2026-05-09 00:40 -13.43176 -39.30943 38056 ft 423 kts 217°
2026-05-09 00:40 -13.48731 -39.35089 38060 ft 423 kts 217°
2026-05-09 00:41 -13.55059 -39.39829 38063 ft 421 kts 217°
2026-05-09 00:41 -13.59800 -39.43385 38064 ft 422 kts 217°
2026-05-09 00:42 -13.64535 -39.46936 38067 ft 423 kts 217°
2026-05-09 00:42 -13.69289 -39.50503 38070 ft 422 kts 217°
2026-05-09 00:43 -13.74828 -39.54660 38078 ft 421 kts 217°
2026-05-09 00:43 -13.78779 -39.57626 38078 ft 419 kts 217°
2026-05-09 00:44 -13.83473 -39.61153 38079 ft 420 kts 217°
2026-05-09 00:44 -13.88215 -39.64717 38086 ft 420 kts 216°
2026-05-09 00:45 -13.92901 -39.68242 38081 ft 419 kts 216°
2026-05-09 00:45 -13.97610 -39.71786 38087 ft 417 kts 217°
2026-05-09 00:46 -14.02326 -39.75335 38085 ft 420 kts 216°
2026-05-09 00:46 -14.07037 -39.78883 38088 ft 419 kts 217°
2026-05-09 00:47 -14.11745 -39.82431 38091 ft 418 kts 217°
2026-05-09 00:47 -14.16443 -39.85974 38097 ft 418 kts 217°
2026-05-09 00:48 -14.21113 -39.89497 38105 ft 417 kts 216°
2026-05-09 00:48 -14.25809 -39.93041 38112 ft 418 kts 217°
2026-05-09 00:49 -14.30492 -39.96578 38117 ft 417 kts 216°
2026-05-09 00:49 -14.35162 -40.00106 38118 ft 415 kts 216°
2026-05-09 00:50 -14.39816 -40.03624 38118 ft 416 kts 217°
2026-05-09 00:50 -14.44513 -40.07177 38115 ft 417 kts 216°
2026-05-09 00:51 -14.49170 -40.10703 38121 ft 416 kts 217°
2026-05-09 00:51 -14.53847 -40.14243 38122 ft 416 kts 217°
2026-05-09 00:52 -14.58538 -40.17796 38125 ft 418 kts 216°
2026-05-09 00:52 -14.63192 -40.21324 38126 ft 416 kts 216°
2026-05-09 00:53 -14.68654 -40.25467 38128 ft 417 kts 216°
2026-05-09 00:53 -14.72531 -40.28410 38132 ft 416 kts 216°
2026-05-09 00:54 -14.77199 -40.31954 38135 ft 416 kts 216°
2026-05-09 00:54 -14.81857 -40.35493 38143 ft 415 kts 216°
2026-05-09 00:55 -14.86495 -40.39019 38143 ft 415 kts 216°
2026-05-09 00:55 -14.91131 -40.42546 38135 ft 414 kts 216°
2026-05-09 00:56 -14.95789 -40.46091 38133 ft 416 kts 216°
2026-05-09 00:56 -15.00435 -40.49628 38127 ft 415 kts 216°
2026-05-09 00:57 -15.05098 -40.53181 38127 ft 415 kts 216°
2026-05-09 00:57 -15.09739 -40.56718 38126 ft 415 kts 216°
2026-05-09 00:58 -15.14406 -40.60278 38127 ft 415 kts 216°
2026-05-09 00:58 -15.19047 -40.63820 38125 ft 414 kts 216°
2026-05-09 00:59 -15.23676 -40.67355 38124 ft 414 kts 217°
2026-05-09 00:59 -15.28324 -40.70905 38126 ft 414 kts 217°
2026-05-09 01:00 -15.32944 -40.74437 38133 ft 415 kts 217°
2026-05-09 01:00 -15.37596 -40.77994 38137 ft 414 kts 217°
2026-05-09 01:01 -15.42243 -40.81551 38144 ft 415 kts 217°
2026-05-09 01:01 -15.46879 -40.85101 38151 ft 414 kts 217°
2026-05-09 01:02 -15.51518 -40.88655 38149 ft 415 kts 217°
2026-05-09 01:02 -15.56148 -40.92205 38149 ft 414 kts 217°
2026-05-09 01:03 -15.60774 -40.95754 38151 ft 414 kts 217°
2026-05-09 01:03 -15.65392 -40.99298 38150 ft 414 kts 217°
2026-05-09 01:04 -15.70023 -41.02853 38151 ft 414 kts 217°
2026-05-09 01:04 -15.74678 -41.06431 38159 ft 414 kts 217°
2026-05-09 01:05 -15.79287 -41.09974 38162 ft 414 kts 217°
2026-05-09 01:06 -15.86233 -41.15317 38162 ft 413 kts 217°
2026-05-09 01:06 -15.90863 -41.18883 38163 ft 413 kts 217°
2026-05-09 01:07 -15.95462 -41.22425 38162 ft 413 kts 217°
2026-05-09 01:07 -16.00080 -41.25984 38156 ft 414 kts 217°
2026-05-09 01:08 -16.04727 -41.29566 38155 ft 413 kts 217°
2026-05-09 01:08 -16.09326 -41.33115 38154 ft 412 kts 217°
2026-05-09 01:09 -16.13938 -41.36675 38154 ft 414 kts 217°
2026-05-09 01:09 -16.18549 -41.40237 38153 ft 412 kts 217°
2026-05-09 01:10 -16.23930 -41.44396 38151 ft 412 kts 217°
2026-05-09 01:10 -16.27764 -41.47361 38147 ft 411 kts 217°
2026-05-09 01:11 -16.32363 -41.50921 38140 ft 411 kts 217°
2026-05-09 01:11 -16.36951 -41.54472 38136 ft 412 kts 217°
2026-05-09 01:12 -16.41556 -41.58040 38128 ft 411 kts 217°
2026-05-09 01:12 -16.46145 -41.61597 38123 ft 410 kts 217°
2026-05-09 01:13 -16.50734 -41.65156 38116 ft 413 kts 217°
2026-05-09 01:13 -16.55339 -41.68731 38117 ft 411 kts 217°
2026-05-09 01:14 -16.59921 -41.72290 38122 ft 410 kts 217°
2026-05-09 01:14 -16.64485 -41.75838 38127 ft 410 kts 217°
2026-05-09 01:15 -16.69066 -41.79401 38132 ft 410 kts 217°
2026-05-09 01:15 -16.73650 -41.82967 38128 ft 409 kts 217°
2026-05-09 01:16 -16.78980 -41.87117 38127 ft 410 kts 217°
2026-05-09 01:16 -16.82777 -41.90074 38125 ft 409 kts 217°
2026-05-09 01:17 -16.89627 -41.95416 38124 ft 410 kts 217°
2026-05-09 01:17 -16.94194 -41.98980 38126 ft 411 kts 217°
2026-05-09 01:18 -16.98767 -42.02551 38127 ft 409 kts 217°
2026-05-09 01:18 -17.03333 -42.06121 38126 ft 408 kts 217°
2026-05-09 01:19 -17.07872 -42.09671 38131 ft 408 kts 217°
2026-05-09 01:19 -17.12425 -42.13235 38133 ft 408 kts 217°
2026-05-09 01:20 -17.16977 -42.16799 38137 ft 409 kts 217°
2026-05-09 01:20 -17.21530 -42.20367 38141 ft 410 kts 217°
2026-05-09 01:21 -17.26102 -42.23951 38142 ft 409 kts 218°
2026-05-09 01:21 -17.30661 -42.27529 38151 ft 411 kts 217°
2026-05-09 01:22 -17.35236 -42.31120 38152 ft 411 kts 217°
2026-05-09 01:22 -17.39811 -42.34713 38160 ft 412 kts 218°
2026-05-09 01:23 -17.44404 -42.38325 38166 ft 411 kts 217°
2026-05-09 01:23 -17.49726 -42.42510 38173 ft 410 kts 218°
2026-05-09 01:24 -17.53524 -42.45500 38175 ft 411 kts 218°
2026-05-09 01:24 -17.58114 -42.49116 38182 ft 410 kts 218°
2026-05-09 01:25 -17.62671 -42.52708 38186 ft 411 kts 218°
2026-05-09 01:25 -17.67251 -42.56319 38190 ft 412 kts 218°
2026-05-09 01:26 -17.71823 -42.59926 38193 ft 411 kts 218°
2026-05-09 01:26 -17.76410 -42.63547 38203 ft 412 kts 218°
2026-05-09 01:27 -17.80977 -42.67156 38207 ft 412 kts 218°
2026-05-09 01:27 -17.85560 -42.70779 38222 ft 413 kts 218°
2026-05-09 01:28 -17.90128 -42.74394 38237 ft 411 kts 218°
2026-05-09 01:28 -17.94686 -42.78003 38253 ft 411 kts 218°
2026-05-09 01:29 -17.99273 -42.81636 38256 ft 411 kts 219°
2026-05-09 01:29 -18.03826 -42.85245 38246 ft 412 kts 218°
2026-05-09 01:30 -18.08397 -42.88872 37936 ft 407 kts 218°
2026-05-09 01:30 -18.10641 -42.90653 37499 ft 403 kts 218°
2026-05-09 01:30 -18.12862 -42.92417 36962 ft 403 kts 218°
2026-05-09 01:31 -18.15099 -42.94195 36463 ft 405 kts 218°
2026-05-09 01:31 -18.17388 -42.96016 36009 ft 410 kts 218°
2026-05-09 01:31 -18.19669 -42.97829 35472 ft 411 kts 218°
2026-05-09 01:31 -18.21917 -42.99616 34958 ft 407 kts 218°
2026-05-09 01:32 -18.24160 -43.01400 34448 ft 403 kts 218°
2026-05-09 01:32 -18.26408 -43.03187 33938 ft 400 kts 218°
2026-05-09 01:32 -18.28608 -43.04937 33442 ft 396 kts 218°
2026-05-09 01:32 -18.30802 -43.06683 32960 ft 393 kts 218°
2026-05-09 01:33 -18.32945 -43.08390 32509 ft 390 kts 218°
2026-05-09 01:33 -18.35102 -43.10108 32028 ft 388 kts 218°
2026-05-09 01:33 -18.37243 -43.11814 31546 ft 386 kts 218°
2026-05-09 01:33 -18.39388 -43.13523 31063 ft 384 kts 218°
2026-05-09 01:34 -18.41513 -43.15211 30585 ft 382 kts 218°
2026-05-09 01:34 -18.43636 -43.16892 30108 ft 380 kts 218°
2026-05-09 01:34 -18.45733 -43.18552 29643 ft 378 kts 218°
2026-05-09 01:34 -18.47817 -43.20200 29179 ft 376 kts 219°
2026-05-09 01:35 -18.49912 -43.21859 28705 ft 374 kts 219°
2026-05-09 01:35 -18.51976 -43.23495 28240 ft 372 kts 219°
2026-05-09 01:35 -18.54046 -43.25135 27778 ft 370 kts 218°
2026-05-09 01:35 -18.56777 -43.27302 27176 ft 367 kts 218°
2026-05-09 01:36 -18.58119 -43.28368 26878 ft 366 kts 218°
2026-05-09 01:36 -18.60159 -43.29988 26432 ft 364 kts 218°
2026-05-09 01:36 -18.62164 -43.31580 25989 ft 362 kts 218°
2026-05-09 01:36 -18.64167 -43.33171 25551 ft 360 kts 218°
2026-05-09 01:37 -18.66176 -43.34768 25114 ft 364 kts 218°
2026-05-09 01:37 -18.68216 -43.36390 24655 ft 368 kts 218°
2026-05-09 01:37 -18.70265 -43.38020 24205 ft 367 kts 218°
2026-05-09 01:37 -18.72304 -43.39640 23759 ft 365 kts 218°
2026-05-09 01:38 -18.74317 -43.41239 23318 ft 363 kts 218°
2026-05-09 01:38 -18.76310 -43.42825 22883 ft 361 kts 218°
2026-05-09 01:38 -18.78321 -43.44426 22449 ft 359 kts 218°
2026-05-09 01:38 -18.80297 -43.45998 22021 ft 358 kts 218°
2026-05-09 01:39 -18.82301 -43.47595 21574 ft 357 kts 218°
2026-05-09 01:39 -18.84275 -43.49168 21132 ft 356 kts 218°
2026-05-09 01:39 -18.86244 -43.50737 20693 ft 355 kts 217°
2026-05-09 01:39 -18.88228 -43.52319 20254 ft 354 kts 217°
2026-05-09 01:40 -18.90174 -43.53870 19823 ft 353 kts 217°
2026-05-09 01:40 -18.92135 -43.55436 19388 ft 351 kts 217°
2026-05-09 01:40 -18.94063 -43.56973 18962 ft 350 kts 217°
2026-05-09 01:40 -18.96022 -43.58538 18529 ft 348 kts 217°
2026-05-09 01:41 -18.97928 -43.60061 18104 ft 347 kts 217°
2026-05-09 01:41 -18.99869 -43.61612 17677 ft 346 kts 217°
2026-05-09 01:41 -19.01779 -43.63138 17259 ft 344 kts 217°
2026-05-09 01:41 -19.03694 -43.64654 16838 ft 343 kts 217°
2026-05-09 01:42 -19.06245 -43.66659 16280 ft 342 kts 217°
2026-05-09 01:42 -19.07518 -43.67659 15999 ft 341 kts 217°
2026-05-09 01:42 -19.09402 -43.69138 15577 ft 340 kts 217°
2026-05-09 01:42 -19.11300 -43.70631 15152 ft 339 kts 217°
2026-05-09 01:43 -19.13199 -43.72126 14728 ft 338 kts 217°
2026-05-09 01:43 -19.15073 -43.73604 14309 ft 337 kts 217°
2026-05-09 01:43 -19.16968 -43.75098 13869 ft 335 kts 218°
2026-05-09 01:43 -19.18824 -43.76561 13463 ft 329 kts 218°
2026-05-09 01:44 -19.20626 -43.77983 13057 ft 324 kts 218°
2026-05-09 01:44 -19.22422 -43.79400 12650 ft 319 kts 218°
2026-05-09 01:44 -19.24188 -43.80795 12250 ft 314 kts 218°
2026-05-09 01:44 -19.25900 -43.82207 11861 ft 311 kts 223°
2026-05-09 01:45 -19.27462 -43.83789 11458 ft 310 kts 227°
2026-05-09 01:45 -19.28937 -43.85433 11072 ft 309 kts 229°
2026-05-09 01:45 -19.30409 -43.87118 10682 ft 308 kts 229°
2026-05-09 01:45 -19.31857 -43.88775 10298 ft 307 kts 229°
2026-05-09 01:46 -19.33294 -43.90403 10063 ft 300 kts 228°
2026-05-09 01:46 -19.34713 -43.91999 9724 ft 299 kts 228°
2026-05-09 01:46 -19.36138 -43.93598 9359 ft 298 kts 228°
2026-05-09 01:46 -19.37558 -43.95190 8997 ft 297 kts 228°
2026-05-09 01:47 -19.38981 -43.96784 8635 ft 296 kts 228°
2026-05-09 01:47 -19.40394 -43.98369 8278 ft 294 kts 228°
2026-05-09 01:47 -19.41760 -43.99962 8024 ft 288 kts 233°
2026-05-09 01:47 -19.42838 -44.01734 7743 ft 285 kts 250°
2026-05-09 01:48 -19.43151 -44.03717 7340 ft 271 kts 275°
2026-05-09 01:48 -19.43007 -44.05680 7003 ft 261 kts 275°
2026-05-09 01:48 -19.43036 -44.07563 6743 ft 251 kts 265°
2026-05-09 01:48 -19.43449 -44.09300 6646 ft 237 kts 246°
2026-05-09 01:49 -19.44486 -44.10561 6580 ft 223 kts 211°
2026-05-09 01:49 -19.45930 -44.11083 6514 ft 219 kts 187°
2026-05-09 01:49 -19.47437 -44.11040 6277 ft 219 kts 162°
2026-05-09 01:49 -19.48715 -44.10310 6122 ft 199 kts 137°
2026-05-09 01:50 -19.49758 -44.09356 6028 ft 200 kts 136°
2026-05-09 01:50 -19.50825 -44.08372 5675 ft 200 kts 136°
2026-05-09 01:50 -19.51854 -44.07438 5422 ft 194 kts 137°
2026-05-09 01:50 -19.52865 -44.06514 5169 ft 187 kts 136°
2026-05-09 01:51 -19.53825 -44.05629 4920 ft 180 kts 137°
2026-05-09 01:51 -19.54759 -44.04770 4730 ft 176 kts 137°
2026-05-09 01:51 -19.55684 -44.03923 4446 ft 173 kts 137°
2026-05-09 01:51 -19.56587 -44.03096 4227 ft 165 kts 137°
2026-05-09 01:52 -19.57425 -44.02327 4041 ft 159 kts 137°
2026-05-09 01:52 -19.58264 -44.01555 3808 ft 157 kts 137°
2026-05-09 01:52 -19.59085 -44.00798 3605 ft 155 kts 137°
2026-05-09 01:52 -19.59891 -44.00056 3397 ft 153 kts 137°
2026-05-09 01:53 -19.60706 -43.99327 3169 ft 149 kts 139°
2026-05-09 01:53 -19.61485 -43.98615 2974 ft 149 kts 137°
2026-05-09 01:53 -19.62273 -43.97893 2824 ft 148 kts 138°
2026-05-09 01:53 -19.63032 -43.97189 2760 ft 142 kts 138°
2026-05-09 01:54 -19.63839 -43.96450 3104 ft 156 kts 138°
2026-05-09 01:54 -19.64656 -43.95710 3570 ft 168 kts 138°
2026-05-09 01:54 -19.65588 -43.94864 3864 ft 177 kts 135°
2026-05-09 01:54 -19.66364 -43.93858 4289 ft 180 kts 117°
2026-05-09 01:55 -19.66870 -43.92638 4686 ft 187 kts 108°
2026-05-09 01:55 -19.67303 -43.91271 5006 ft 201 kts 104°
2026-05-09 01:55 -19.67510 -43.89843 5503 ft 195 kts 85°
2026-05-09 01:55 -19.67248 -43.88451 5887 ft 196 kts 63°
2026-05-09 01:56 -19.66441 -43.87291 6178 ft 195 kts 37°
2026-05-09 01:56 -19.65248 -43.86665 6582 ft 191 kts 11°
2026-05-09 01:56 -19.63913 -43.86693 6820 ft 195 kts 345°
2026-05-09 01:56 -19.62696 -43.87330 6887 ft 198 kts 328°
2026-05-09 01:57 -19.61630 -43.88285 6880 ft 201 kts 315°
2026-05-09 01:57 -19.60878 -43.89534 6871 ft 207 kts 287°
2026-05-09 01:57 -19.60790 -43.91134 6987 ft 224 kts 276°
2026-05-09 01:57 -19.60342 -43.92648 6984 ft 208 kts 312°
2026-05-09 01:58 -19.59203 -43.93455 7002 ft 196 kts 343°
2026-05-09 01:58 -19.57897 -43.93910 6993 ft 197 kts 341°
2026-05-09 01:58 -19.56635 -43.94469 6992 ft 196 kts 337°
2026-05-09 01:58 -19.55390 -43.95106 6991 ft 199 kts 335°
2026-05-09 01:59 -19.54148 -43.95759 6989 ft 198 kts 335°
2026-05-09 01:59 -19.52910 -43.96404 6989 ft 197 kts 336°
2026-05-09 01:59 -19.51682 -43.97042 6989 ft 196 kts 336°
2026-05-09 01:59 -19.50452 -43.97679 6988 ft 197 kts 336°
2026-05-09 02:00 -19.49223 -43.98317 6987 ft 198 kts 336°
2026-05-09 02:00 -19.47977 -43.98963 6948 ft 193 kts 335°
2026-05-09 02:00 -19.46774 -43.99584 6681 ft 198 kts 335°
2026-05-09 02:00 -19.45539 -44.00227 6523 ft 194 kts 334°
2026-05-09 02:01 -19.44414 -44.01061 6146 ft 203 kts 315°
2026-05-09 02:01 -19.43746 -44.02369 5796 ft 209 kts 287°
2026-05-09 02:01 -19.43629 -44.03899 5503 ft 210 kts 266°
2026-05-09 02:01 -19.43891 -44.05433 5485 ft 211 kts 259°
2026-05-09 02:02 -19.44239 -44.06965 5483 ft 215 kts 256°
2026-05-09 02:02 -19.44834 -44.08414 5478 ft 218 kts 236°
2026-05-09 02:02 -19.45987 -44.09457 5481 ft 221 kts 205°
2026-05-09 02:02 -19.47464 -44.09911 5485 ft 220 kts 186°
2026-05-09 02:03 -19.48984 -44.09790 5486 ft 218 kts 158°
2026-05-09 02:03 -19.50255 -44.08966 5495 ft 215 kts 137°
2026-05-09 02:03 -19.51361 -44.07903 5484 ft 215 kts 135°
2026-05-09 02:03 -19.52459 -44.06860 5268 ft 205 kts 137°
2026-05-09 02:04 -19.53523 -44.05909 4997 ft 192 kts 137°
2026-05-09 02:04 -19.54501 -44.05018 4735 ft 180 kts 136°
2026-05-09 02:04 -19.55400 -44.04184 4564 ft 164 kts 137°
2026-05-09 02:04 -19.56254 -44.03400 4326 ft 162 kts 137°
2026-05-09 02:05 -19.57101 -44.02626 4096 ft 158 kts 137°
2026-05-09 02:05 -19.57943 -44.01849 3890 ft 159 kts 137°
2026-05-09 02:05 -19.58768 -44.01092 3688 ft 157 kts 137°
2026-05-09 02:05 -19.59586 -44.00344 3486 ft 156 kts 137°
2026-05-09 02:06 -19.60407 -43.99593 3270 ft 154 kts 139°
2026-05-09 02:06 -19.61229 -43.98876 3049 ft 151 kts 137°
2026-05-09 02:06 -19.62011 -43.98135 2875 ft 150 kts 137°
2026-05-09 02:07 -19.63445 -43.96806 2758 ft 90 kts 139°
2026-05-09 02:07 -19.63773 -43.96504 2758 ft 50 kts 139°
2026-05-09 02:07 -19.64029 -43.96265 2758 ft 47 kts 137°
2026-05-09 02:07 -19.64269 -43.96045 2759 ft 43 kts 140°
2026-05-09 02:08 -19.64366 -43.95910 2759 ft 18 kts 62°
2026-05-09 02:08 -19.64302 -43.95843 2759 ft 10 kts 41°
2026-05-09 02:08 -19.64241 -43.95842 2759 ft 9 kts 320°
2026-05-09 02:08 -19.64192 -43.95887 2759 ft 9 kts 319°
2026-05-09 02:09 -19.64146 -43.95930 2759 ft 8 kts 318°
2026-05-09 02:09 -19.64102 -43.95971 2758 ft 8 kts 318°
2026-05-09 02:09 -19.64061 -43.96010 2759 ft 7 kts 319°
2026-05-09 02:09 -19.64021 -43.96048 2758 ft 8 kts 319°
2026-05-09 02:10 -19.63972 -43.96092 2758 ft 10 kts 319°
2026-05-09 02:10 -19.63912 -43.96147 2758 ft 12 kts 319°
2026-05-09 02:10 -19.63842 -43.96212 2758 ft 14 kts 318°
2026-05-09 02:10 -19.63763 -43.96286 2758 ft 15 kts 319°
2026-05-09 02:11 -19.63677 -43.96364 2758 ft 16 kts 319°
2026-05-09 02:11 -19.63586 -43.96449 2758 ft 17 kts 317°
2026-05-09 02:11 -19.63490 -43.96536 2758 ft 18 kts 319°
2026-05-09 02:11 -19.63391 -43.96626 2758 ft 18 kts 319°
2026-05-09 02:12 -19.63315 -43.96695 2758 ft 10 kts 321°
2026-05-09 02:12 -19.63269 -43.96702 2758 ft 4 kts 31°
2026-05-09 02:12 -19.63245 -43.96679 2758 ft 5 kts 49°
2026-05-09 02:12 -19.63221 -43.96648 2758 ft 5 kts 51°
2026-05-09 02:13 -19.63195 -43.96616 2758 ft 6 kts 38°
2026-05-09 02:13 -19.63158 -43.96617 2757 ft 3 kts 327°
2026-05-09 02:13 -19.63141 -43.96623 2757 ft 2 kts
2026-05-09 02:13 -19.63124 -43.96611 2757 ft 3 kts 45°
2026-05-09 02:14 -19.63106 -43.96590 2757 ft 2 kts 51°
2026-05-09 02:14 -19.63095 -43.96576 2756 ft 1 kts 50°
2026-05-09 02:14 -19.63092 -43.96571 2756 ft 0 kts 50°